TAP281 LPPT-FNBJ

Flight info

Callsign TAP281
Flight time 7h 12m
Altitude 37000
Route DUZOP DCT OBOLO DCT AMSEL UR722 MAK UM372 BULIS UR866 NUSUR/N0475F390 UR866 OG UR983 GAPAK UA400 VNA DCT VBJ
Aircraft A339/H-SADE1E2E3GHIJ3J5M1P2RWXY/LB2D1

Departure

Time 2026-04-29 05:35
Airport Lisbon Humberto Delgado Airport (LPPT)

Arrival

Time 2026-04-29 12:48
Airport Dr. Antonio Agostinho Neto International Airport (FNBJ)
Time Latitude Longitude Altitude Speed Heading
2026-04-29 04:52 38.77610 -9.13196 343 ft 0 kts 78°
2026-04-29 05:15 38.77609 -9.13204 343 ft 4 kts 78°
2026-04-29 05:16 38.77603 -9.13237 354 ft 4 kts 78°
2026-04-29 05:16 38.77598 -9.13267 354 ft 3 kts 79°
2026-04-29 05:16 38.77593 -9.13292 354 ft 4 kts 123°
2026-04-29 05:16 38.77607 -9.13312 354 ft 4 kts 163°
2026-04-29 05:17 38.77632 -9.13320 351 ft 3 kts 179°
2026-04-29 05:17 38.77640 -9.13320 354 ft 0 kts 179°
2026-04-29 05:22 38.77637 -9.13320 353 ft 0 kts 179°
2026-04-29 05:23 38.77586 -9.13318 355 ft 9 kts 175°
2026-04-29 05:23 38.77529 -9.13309 347 ft 7 kts 169°
2026-04-29 05:23 38.77477 -9.13294 349 ft 8 kts 167°
2026-04-29 05:23 38.77421 -9.13278 346 ft 9 kts 167°
2026-04-29 05:24 38.77360 -9.13270 350 ft 9 kts 184°
2026-04-29 05:24 38.77329 -9.13316 355 ft 6 kts 253°
2026-04-29 05:24 38.77333 -9.13353 351 ft 3 kts 284°
2026-04-29 05:24 38.77346 -9.13375 357 ft 5 kts 308°
2026-04-29 05:25 38.77378 -9.13392 356 ft 5 kts 347°
2026-04-29 05:25 38.77413 -9.13402 354 ft 5 kts 348°
2026-04-29 05:25 38.77451 -9.13412 348 ft 6 kts 348°
2026-04-29 05:25 38.77489 -9.13423 349 ft 5 kts 348°
2026-04-29 05:26 38.77525 -9.13431 356 ft 5 kts 350°
2026-04-29 05:26 38.77560 -9.13440 354 ft 6 kts 348°
2026-04-29 05:26 38.77602 -9.13451 356 ft 6 kts 348°
2026-04-29 05:26 38.77642 -9.13462 359 ft 6 kts 348°
2026-04-29 05:27 38.77685 -9.13474 362 ft 8 kts 348°
2026-04-29 05:27 38.77787 -9.13501 365 ft 9 kts 348°
2026-04-29 05:27 38.77843 -9.13516 366 ft 7 kts 348°
2026-04-29 05:28 38.77893 -9.13530 368 ft 8 kts 348°
2026-04-29 05:28 38.77947 -9.13544 368 ft 8 kts 348°
2026-04-29 05:28 38.77999 -9.13558 369 ft 8 kts 348°
2026-04-29 05:28 38.78072 -9.13578 374 ft 13 kts 348°
2026-04-29 05:29 38.78168 -9.13603 373 ft 15 kts 348°
2026-04-29 05:29 38.78275 -9.13632 376 ft 17 kts 348°
2026-04-29 05:29 38.78387 -9.13664 379 ft 16 kts 347°
2026-04-29 05:29 38.78491 -9.13692 385 ft 15 kts 348°
2026-04-29 05:30 38.78574 -9.13704 387 ft 11 kts
2026-04-29 05:30 38.78621 -9.13639 382 ft 12 kts 66°
2026-04-29 05:30 38.78679 -9.13551 376 ft 13 kts 30°
2026-04-29 05:30 38.78776 -9.13495 370 ft 13 kts 22°
2026-04-29 05:31 38.78880 -9.13443 362 ft 19 kts 22°
2026-04-29 05:31 38.79008 -9.13374 361 ft 21 kts 23°
2026-04-29 05:31 38.79141 -9.13300 359 ft 20 kts 23°
2026-04-29 05:31 38.79267 -9.13231 362 ft 19 kts 22°
2026-04-29 05:32 38.79383 -9.13171 363 ft 17 kts 22°
2026-04-29 05:32 38.79489 -9.13115 366 ft 16 kts 22°
2026-04-29 05:32 38.79579 -9.13067 371 ft 13 kts 22°
2026-04-29 05:32 38.79659 -9.13025 369 ft 12 kts 22°
2026-04-29 05:33 38.79740 -9.12982 369 ft 13 kts 22°
2026-04-29 05:33 38.79774 -9.12914 366 ft 9 kts 89°
2026-04-29 05:33 38.79745 -9.12815 367 ft 14 kts 116°
2026-04-29 05:33 38.79681 -9.12767 359 ft 10 kts 180°
2026-04-29 05:34 38.79617 -9.12798 360 ft 10 kts 203°
2026-04-29 05:34 38.79448 -9.12890 364 ft 60 kts 202°
2026-04-29 05:34 38.78822 -9.13224 364 ft 131 kts 202°
2026-04-29 05:34 38.77821 -9.13760 407 ft 180 kts 203°
2026-04-29 05:35 38.76618 -9.14402 950 ft 190 kts 202°
2026-04-29 05:35 38.75344 -9.15058 1460 ft 206 kts 202°
2026-04-29 05:35 38.73963 -9.15769 1861 ft 224 kts 202°
2026-04-29 05:35 38.72445 -9.16471 2311 ft 237 kts 200°
2026-04-29 05:36 38.70841 -9.17272 2611 ft 256 kts 203°
2026-04-29 05:36 38.69212 -9.18160 3158 ft 260 kts 203°
2026-04-29 05:36 38.67513 -9.18977 3727 ft 263 kts 191°
2026-04-29 05:36 38.65705 -9.18879 4316 ft 266 kts 163°
2026-04-29 05:37 38.63968 -9.18024 4888 ft 269 kts 156°
2026-04-29 05:37 38.62250 -9.17056 5503 ft 271 kts 156°
2026-04-29 05:37 38.60512 -9.16096 6098 ft 273 kts 157°
2026-04-29 05:37 38.58749 -9.15165 6700 ft 275 kts 158°
2026-04-29 05:38 38.56964 -9.14254 7304 ft 278 kts 158°
2026-04-29 05:38 38.55153 -9.13344 7910 ft 280 kts 159°
2026-04-29 05:38 38.53331 -9.12435 8499 ft 283 kts 159°
2026-04-29 05:38 38.51491 -9.11518 9080 ft 285 kts 159°
2026-04-29 05:39 38.49732 -9.10641 9637 ft 288 kts 159°
2026-04-29 05:39 38.47852 -9.09706 10201 ft 292 kts 159°
2026-04-29 05:39 38.45904 -9.08735 10395 ft 309 kts 159°
2026-04-29 05:39 38.43872 -9.07719 10550 ft 326 kts 159°
2026-04-29 05:40 38.41708 -9.06637 10851 ft 338 kts 159°
2026-04-29 05:40 38.39507 -9.05536 11354 ft 341 kts 159°
2026-04-29 05:40 38.37289 -9.04427 11905 ft 344 kts 159°
2026-04-29 05:40 38.35053 -9.03310 12420 ft 346 kts 159°
2026-04-29 05:41 38.32801 -9.02187 12934 ft 349 kts 159°
2026-04-29 05:41 38.30527 -9.01055 13442 ft 352 kts 159°
2026-04-29 05:41 38.29016 -9.00303 13773 ft 353 kts 159°
2026-04-29 05:41 38.25934 -8.98770 14438 ft 357 kts 159°
2026-04-29 05:42 38.23610 -8.97615 14924 ft 359 kts 159°
2026-04-29 05:42 38.21271 -8.96453 15400 ft 362 kts 159°
2026-04-29 05:42 38.18918 -8.95285 15869 ft 365 kts 159°
2026-04-29 05:42 38.17348 -8.94505 16169 ft 366 kts 159°
2026-04-29 05:43 38.14966 -8.93324 16632 ft 369 kts 159°
2026-04-29 05:43 38.12561 -8.92132 17081 ft 371 kts 159°
2026-04-29 05:43 38.10145 -8.90936 17522 ft 374 kts 159°
2026-04-29 05:43 38.06921 -8.89340 18098 ft 377 kts 159°
2026-04-29 05:44 38.05264 -8.88520 18389 ft 379 kts 159°
2026-04-29 05:44 38.02801 -8.87303 18817 ft 381 kts 159°
2026-04-29 05:44 38.00321 -8.86077 19250 ft 384 kts 159°
2026-04-29 05:44 37.97871 -8.84868 19656 ft 386 kts 159°
2026-04-29 05:45 37.95325 -8.83612 20073 ft 389 kts 159°
2026-04-29 05:45 37.92828 -8.82381 20495 ft 391 kts 159°
2026-04-29 05:45 37.90287 -8.81129 20909 ft 393 kts 159°
2026-04-29 05:45 37.87725 -8.79868 21317 ft 396 kts 159°
2026-04-29 05:46 37.85150 -8.78601 21723 ft 398 kts 159°
2026-04-29 05:46 37.82564 -8.77330 22109 ft 401 kts 159°
2026-04-29 05:46 37.79958 -8.76050 22511 ft 403 kts 159°
2026-04-29 05:46 37.77325 -8.74758 22890 ft 406 kts 159°
2026-04-29 05:47 37.74688 -8.73464 23297 ft 408 kts 159°
2026-04-29 05:47 37.72029 -8.72161 23687 ft 411 kts 159°
2026-04-29 05:47 37.69355 -8.70851 24081 ft 413 kts 159°
2026-04-29 05:47 37.66665 -8.69535 24448 ft 416 kts 159°
2026-04-29 05:48 37.63994 -8.68221 24812 ft 418 kts 158°
2026-04-29 05:48 37.61278 -8.66866 25176 ft 420 kts 158°
2026-04-29 05:48 37.58552 -8.65514 25518 ft 423 kts 158°
2026-04-29 05:48 37.55806 -8.64165 25868 ft 425 kts 159°
2026-04-29 05:49 37.53038 -8.62814 26212 ft 427 kts 159°
2026-04-29 05:49 37.50251 -8.61460 26535 ft 430 kts 159°
2026-04-29 05:49 37.47455 -8.60103 26883 ft 432 kts 159°
2026-04-29 05:49 37.44644 -8.58740 27191 ft 434 kts 159°
2026-04-29 05:50 37.41817 -8.57370 27488 ft 437 kts 159°
2026-04-29 05:50 37.38972 -8.55992 27765 ft 440 kts 159°
2026-04-29 05:50 37.36114 -8.54608 28089 ft 441 kts 159°
2026-04-29 05:50 37.33238 -8.53217 28371 ft 444 kts 159°
2026-04-29 05:51 37.30347 -8.51820 28611 ft 447 kts 159°
2026-04-29 05:51 37.27445 -8.50418 29007 ft 446 kts 159°
2026-04-29 05:51 37.24581 -8.49035 29297 ft 448 kts 159°
2026-04-29 05:51 37.21662 -8.47626 29536 ft 450 kts 159°
2026-04-29 05:52 37.18730 -8.46213 29824 ft 452 kts 159°
2026-04-29 05:52 37.15785 -8.44794 30112 ft 454 kts 159°
2026-04-29 05:52 37.12827 -8.43371 30382 ft 456 kts 159°
2026-04-29 05:52 37.09861 -8.41944 30649 ft 458 kts 159°
2026-04-29 05:53 37.06882 -8.40513 30938 ft 459 kts 159°
2026-04-29 05:53 37.03893 -8.39077 31209 ft 461 kts 159°
2026-04-29 05:53 37.00892 -8.37637 31470 ft 463 kts 159°
2026-04-29 05:53 36.97870 -8.36188 31739 ft 465 kts 159°
2026-04-29 05:54 36.94880 -8.34755 31979 ft 467 kts 159°
2026-04-29 05:54 36.91839 -8.33300 32232 ft 469 kts 159°
2026-04-29 05:54 36.88784 -8.31841 32462 ft 470 kts 159°
2026-04-29 05:54 36.85712 -8.30373 32670 ft 472 kts 159°
2026-04-29 05:55 36.82637 -8.28905 32863 ft 473 kts 159°
2026-04-29 05:55 36.79561 -8.27437 33030 ft 475 kts 159°
2026-04-29 05:55 36.76467 -8.25962 33188 ft 476 kts 159°
2026-04-29 05:55 36.73364 -8.24482 33327 ft 477 kts 159°
2026-04-29 05:56 36.70264 -8.23006 33458 ft 478 kts 159°
2026-04-29 05:56 36.67246 -8.21570 33603 ft 478 kts 159°
2026-04-29 05:56 36.64094 -8.20072 33758 ft 478 kts 159°
2026-04-29 05:56 36.60986 -8.18595 33937 ft 477 kts 159°
2026-04-29 05:57 36.57888 -8.17124 34102 ft 477 kts 159°
2026-04-29 05:57 36.54795 -8.15637 34258 ft 476 kts 158°
2026-04-29 05:57 36.51704 -8.14148 34402 ft 476 kts 159°
2026-04-29 05:57 36.48596 -8.12663 34549 ft 476 kts 159°
2026-04-29 05:58 36.45501 -8.11195 34696 ft 475 kts 159°
2026-04-29 05:58 36.42444 -8.09751 34838 ft 475 kts 159°
2026-04-29 05:58 36.39351 -8.08295 34982 ft 475 kts 159°
2026-04-29 05:58 36.36260 -8.06841 35127 ft 475 kts 159°
2026-04-29 05:59 36.33174 -8.05390 35277 ft 474 kts 159°
2026-04-29 05:59 36.30088 -8.03942 35406 ft 474 kts 159°
2026-04-29 05:59 36.27000 -8.02493 35544 ft 474 kts 159°
2026-04-29 05:59 36.23923 -8.01049 35677 ft 473 kts 159°
2026-04-29 06:00 36.20837 -7.99602 35812 ft 473 kts 159°
2026-04-29 06:00 36.17756 -7.98158 35945 ft 473 kts 159°
2026-04-29 06:00 36.14678 -7.96717 36077 ft 473 kts 159°
2026-04-29 06:00 36.11600 -7.95276 36199 ft 472 kts 159°
2026-04-29 06:01 36.08528 -7.93841 36318 ft 472 kts 159°
2026-04-29 06:01 36.05450 -7.92403 36429 ft 472 kts 159°
2026-04-29 06:01 36.02372 -7.90965 36533 ft 472 kts 159°
2026-04-29 06:01 35.99307 -7.89640 36635 ft 472 kts 163°
2026-04-29 06:02 35.96118 -7.88627 36742 ft 472 kts 168°
2026-04-29 06:02 35.92871 -7.87962 36850 ft 472 kts 173°
2026-04-29 06:02 35.86321 -7.87364 36998 ft 472 kts 176°
2026-04-29 06:03 35.79767 -7.86784 36999 ft 471 kts 176°
2026-04-29 06:03 35.73268 -7.86195 37000 ft 471 kts 176°
2026-04-29 06:04 35.66716 -7.85602 37000 ft 471 kts 176°
2026-04-29 06:04 35.60167 -7.85012 37000 ft 471 kts 176°
2026-04-29 06:05 35.53625 -7.84424 37000 ft 471 kts 176°
2026-04-29 06:05 35.47078 -7.83835 37000 ft 471 kts 176°
2026-04-29 06:06 35.40574 -7.83252 37000 ft 471 kts 176°
2026-04-29 06:06 35.34034 -7.82696 37000 ft 471 kts 176°
2026-04-29 06:07 35.27472 -7.82149 37000 ft 471 kts 176°
2026-04-29 06:07 35.20924 -7.81600 37000 ft 471 kts 176°
2026-04-29 06:08 35.14375 -7.81049 37000 ft 471 kts 176°
2026-04-29 06:08 35.07869 -7.80503 37001 ft 471 kts 176°
2026-04-29 06:09 35.01318 -7.79954 37000 ft 471 kts 176°
2026-04-29 06:09 34.94775 -7.79407 37000 ft 471 kts 176°
2026-04-29 06:10 34.88225 -7.78860 37001 ft 471 kts 176°
2026-04-29 06:10 34.81680 -7.78314 37001 ft 471 kts 176°
2026-04-29 06:11 34.75137 -7.77769 37001 ft 471 kts 176°
2026-04-29 06:11 34.68586 -7.77273 37000 ft 471 kts 177°
2026-04-29 06:12 34.62033 -7.76828 37000 ft 471 kts 176°
2026-04-29 06:12 34.55528 -7.76340 36998 ft 471 kts 176°
2026-04-29 06:13 34.48987 -7.75874 36997 ft 471 kts 176°
2026-04-29 06:13 34.42432 -7.75423 36997 ft 471 kts 176°
2026-04-29 06:14 34.35894 -7.74975 36997 ft 471 kts 176°
2026-04-29 06:14 34.29408 -7.74531 36998 ft 471 kts 176°
2026-04-29 06:15 34.22907 -7.74085 36998 ft 471 kts 176°
2026-04-29 06:15 34.16358 -7.73623 36999 ft 471 kts 176°
2026-04-29 06:16 34.09813 -7.73007 36999 ft 471 kts 175°
2026-04-29 06:16 34.03278 -7.72383 37000 ft 471 kts 175°
2026-04-29 06:17 33.96730 -7.71777 37000 ft 471 kts 175°
2026-04-29 06:17 33.90185 -7.71177 37001 ft 471 kts 175°
2026-04-29 06:18 33.83637 -7.70577 37001 ft 471 kts 175°
2026-04-29 06:18 33.77135 -7.69982 37001 ft 471 kts 176°
2026-04-29 06:19 33.70585 -7.69383 37001 ft 471 kts 176°
2026-04-29 06:19 33.64037 -7.68788 37002 ft 471 kts 176°
2026-04-29 06:20 33.57493 -7.68218 36996 ft 471 kts 179°
2026-04-29 06:20 33.51007 -7.69179 36993 ft 470 kts 197°
2026-04-29 06:21 33.45052 -7.72367 36995 ft 470 kts 210°
2026-04-29 06:21 33.39384 -7.76176 36992 ft 470 kts 209°
2026-04-29 06:22 33.33651 -7.79971 36996 ft 471 kts 209°
2026-04-29 06:22 33.27909 -7.83765 36997 ft 471 kts 209°
2026-04-29 06:23 33.22164 -7.87558 36999 ft 471 kts 209°
2026-04-29 06:23 33.16421 -7.91345 37000 ft 472 kts 209°
2026-04-29 06:24 33.10669 -7.95132 37001 ft 472 kts 209°
2026-04-29 06:24 33.04949 -7.98893 37001 ft 472 kts 209°
2026-04-29 06:25 32.99195 -8.02670 37002 ft 472 kts 209°
2026-04-29 06:25 32.93201 -8.05842 37004 ft 472 kts 198°
2026-04-29 06:26 32.86807 -8.07624 36999 ft 472 kts 188°
2026-04-29 06:26 32.80325 -8.08642 37001 ft 472 kts 188°
2026-04-29 06:27 32.73808 -8.09711 36999 ft 472 kts 188°
2026-04-29 06:27 32.67293 -8.10782 36997 ft 473 kts 188°
2026-04-29 06:28 32.60772 -8.11849 36998 ft 473 kts 188°
2026-04-29 06:28 32.54250 -8.12915 37001 ft 473 kts 188°
2026-04-29 06:29 32.47719 -8.13980 36996 ft 473 kts 188°
2026-04-29 06:29 32.41236 -8.15036 36997 ft 473 kts 188°
2026-04-29 06:30 32.31427 -8.16630 36996 ft 474 kts 188°
2026-04-29 06:31 32.24896 -8.17690 36998 ft 474 kts 188°
2026-04-29 06:31 32.19462 -8.18571 36999 ft 474 kts 188°
2026-04-29 06:32 32.11824 -8.19263 36995 ft 474 kts 178°
2026-04-29 06:32 32.06326 -8.18633 36997 ft 474 kts 171°
2026-04-29 06:33 31.99848 -8.17390 36997 ft 474 kts 171°
2026-04-29 06:33 31.93318 -8.16182 36997 ft 475 kts 171°
2026-04-29 06:34 31.86787 -8.14982 36998 ft 475 kts 171°
2026-04-29 06:34 31.80250 -8.13781 37004 ft 475 kts 171°
2026-04-29 06:35 31.73726 -8.12584 37004 ft 475 kts 171°
2026-04-29 06:35 31.67242 -8.11398 37003 ft 474 kts 172°
2026-04-29 06:36 31.60659 -8.11040 36998 ft 474 kts 184°
2026-04-29 06:36 31.54138 -8.12202 36998 ft 473 kts 194°
2026-04-29 06:37 31.47721 -8.13997 36995 ft 474 kts 193°
2026-04-29 06:37 31.41296 -8.15746 36993 ft 474 kts 193°
2026-04-29 06:38 31.34859 -8.17492 36992 ft 475 kts 193°
2026-04-29 06:38 31.28461 -8.19227 36991 ft 475 kts 193°
2026-04-29 06:39 31.22014 -8.20974 36990 ft 476 kts 193°
2026-04-29 06:39 31.15557 -8.22721 36999 ft 479 kts 193°
2026-04-29 06:40 31.09012 -8.24489 36999 ft 484 kts 193°
2026-04-29 06:40 31.02421 -8.26267 37000 ft 487 kts 193°
2026-04-29 06:41 30.95874 -8.28030 36997 ft 481 kts 193°
2026-04-29 06:41 30.89353 -8.29785 37000 ft 481 kts 193°
2026-04-29 06:42 30.82811 -8.31543 37003 ft 482 kts 193°
2026-04-29 06:42 30.76297 -8.33290 37000 ft 477 kts 193°
2026-04-29 06:43 30.69859 -8.35014 37001 ft 474 kts 193°
2026-04-29 06:43 30.63426 -8.36736 37000 ft 474 kts 193°
2026-04-29 06:44 30.56999 -8.38453 36999 ft 474 kts 193°
2026-04-29 06:44 30.50611 -8.40168 36989 ft 474 kts 193°
2026-04-29 06:45 30.44162 -8.41900 37003 ft 478 kts 193°
2026-04-29 06:45 30.37673 -8.43638 37001 ft 476 kts 193°
2026-04-29 06:46 30.31193 -8.45372 36999 ft 479 kts 193°
2026-04-29 06:46 30.24680 -8.47111 37000 ft 480 kts 193°
2026-04-29 06:47 30.18212 -8.48837 37000 ft 481 kts 193°
2026-04-29 06:47 30.11691 -8.50574 36998 ft 482 kts 193°
2026-04-29 06:48 30.05134 -8.52318 37006 ft 484 kts 193°
2026-04-29 06:48 29.98566 -8.54063 37001 ft 483 kts 193°
2026-04-29 06:49 29.92032 -8.55797 37000 ft 481 kts 193°
2026-04-29 06:49 29.85515 -8.57523 37001 ft 480 kts 193°
2026-04-29 06:50 29.78996 -8.59249 37000 ft 481 kts 193°
2026-04-29 06:50 29.72467 -8.60974 36992 ft 481 kts 193°
2026-04-29 06:51 29.65974 -8.62687 37001 ft 481 kts 193°
2026-04-29 06:51 29.59440 -8.64408 36996 ft 481 kts 193°
2026-04-29 06:52 29.52915 -8.66126 37008 ft 480 kts 193°
2026-04-29 06:52 29.46400 -8.67838 37000 ft 478 kts 193°
2026-04-29 06:53 29.39962 -8.69529 36999 ft 478 kts 193°
2026-04-29 06:53 29.33478 -8.71228 37000 ft 477 kts 193°
2026-04-29 06:54 29.27021 -8.72919 37000 ft 476 kts 193°
2026-04-29 06:54 29.20552 -8.74610 37010 ft 477 kts 193°
2026-04-29 06:55 29.14079 -8.76301 37005 ft 477 kts 193°
2026-04-29 06:55 29.07613 -8.77987 36996 ft 476 kts 193°
2026-04-29 06:56 29.01181 -8.79663 37000 ft 473 kts 193°
2026-04-29 06:56 28.94788 -8.81324 37000 ft 473 kts 193°
2026-04-29 06:57 28.88363 -8.82990 37000 ft 473 kts 193°
2026-04-29 06:57 28.81928 -8.84657 37000 ft 473 kts 193°
2026-04-29 06:58 28.75540 -8.86309 37000 ft 473 kts 193°
2026-04-29 06:58 28.69129 -8.87966 36999 ft 472 kts 193°
2026-04-29 06:59 28.62788 -8.89602 36998 ft 472 kts 193°
2026-04-29 06:59 28.56376 -8.91255 36998 ft 472 kts 193°
2026-04-29 07:00 28.49964 -8.92905 36999 ft 472 kts 193°
2026-04-29 07:00 28.43555 -8.94553 36998 ft 472 kts 193°
2026-04-29 07:01 28.37179 -8.96190 36998 ft 472 kts 193°
2026-04-29 07:01 28.30759 -8.97837 36995 ft 472 kts 193°
2026-04-29 07:02 28.24347 -8.99479 36989 ft 473 kts 193°
2026-04-29 07:02 28.17925 -9.01123 36995 ft 473 kts 193°
2026-04-29 07:03 28.11487 -9.02768 36992 ft 473 kts 193°
2026-04-29 07:03 28.05056 -9.04409 36994 ft 474 kts 193°
2026-04-29 07:04 27.98624 -9.06048 36997 ft 474 kts 193°
2026-04-29 07:04 27.92190 -9.07686 36997 ft 474 kts 193°
2026-04-29 07:05 27.85796 -9.09312 36998 ft 474 kts 193°
2026-04-29 07:05 27.79351 -9.10949 36999 ft 474 kts 193°
2026-04-29 07:06 27.72912 -9.12577 36998 ft 474 kts 192°
2026-04-29 07:06 27.69639 -9.13015 36996 ft 474 kts 181°
2026-04-29 07:06 27.66350 -9.12804 36993 ft 474 kts 171°
2026-04-29 07:07 27.60090 -9.10520 36997 ft 474 kts 153°
2026-04-29 07:07 27.54194 -9.07154 36997 ft 475 kts 154°
2026-04-29 07:08 27.48307 -9.03853 36998 ft 475 kts 154°
2026-04-29 07:08 27.42388 -9.00540 37001 ft 475 kts 154°
2026-04-29 07:09 27.36452 -8.97218 37002 ft 475 kts 154°
2026-04-29 07:09 27.30528 -8.93906 37003 ft 476 kts 154°
2026-04-29 07:10 27.24598 -8.90595 37003 ft 476 kts 154°
2026-04-29 07:10 27.18699 -8.87305 37003 ft 476 kts 154°
2026-04-29 07:11 27.12769 -8.84002 37002 ft 476 kts 154°
2026-04-29 07:11 27.06838 -8.80702 37003 ft 475 kts 154°
2026-04-29 07:12 27.00902 -8.77403 37003 ft 475 kts 154°
2026-04-29 07:12 26.94972 -8.74112 37003 ft 475 kts 154°
2026-04-29 07:13 26.89078 -8.70844 37003 ft 475 kts 154°
2026-04-29 07:13 26.83147 -8.67560 37002 ft 475 kts 154°
2026-04-29 07:14 26.77226 -8.64285 37002 ft 475 kts 154°
2026-04-29 07:14 26.71285 -8.61003 37002 ft 475 kts 154°
2026-04-29 07:15 26.65358 -8.57732 37000 ft 475 kts 154°
2026-04-29 07:15 26.59461 -8.54482 37001 ft 475 kts 154°
2026-04-29 07:16 26.53529 -8.51216 37001 ft 475 kts 154°
2026-04-29 07:16 26.47591 -8.47951 37000 ft 475 kts 154°
2026-04-29 07:17 26.41659 -8.44693 37000 ft 475 kts 154°
2026-04-29 07:17 26.35726 -8.41438 37000 ft 475 kts 154°
2026-04-29 07:18 26.29791 -8.38186 37001 ft 475 kts 154°
2026-04-29 07:18 26.23886 -8.34953 37001 ft 475 kts 154°
2026-04-29 07:19 26.17949 -8.31707 37001 ft 475 kts 154°
2026-04-29 07:19 26.13015 -8.29013 37000 ft 475 kts 154°
2026-04-29 07:20 26.07081 -8.25775 37001 ft 475 kts 154°
2026-04-29 07:20 26.00176 -8.22013 37001 ft 475 kts 154°
2026-04-29 07:21 25.95202 -8.19305 37001 ft 475 kts 154°
2026-04-29 07:21 25.89305 -8.16098 37001 ft 475 kts 154°
2026-04-29 07:22 25.83365 -8.12872 37001 ft 475 kts 154°
2026-04-29 07:22 25.77422 -8.09648 37001 ft 475 kts 154°
2026-04-29 07:23 25.71487 -8.06431 37001 ft 475 kts 154°
2026-04-29 07:23 25.65600 -8.03245 37001 ft 475 kts 154°
2026-04-29 07:24 25.59656 -8.00031 37001 ft 475 kts 154°
2026-04-29 07:24 25.53761 -7.96847 37000 ft 475 kts 154°
2026-04-29 07:25 25.47817 -7.93640 37001 ft 475 kts 154°
2026-04-29 07:25 25.41870 -7.90435 37000 ft 475 kts 154°
2026-04-29 07:26 25.35923 -7.87233 37000 ft 475 kts 154°
2026-04-29 07:26 25.29985 -7.84040 37001 ft 475 kts 154°
2026-04-29 07:27 25.24047 -7.80850 37000 ft 475 kts 154°
2026-04-29 07:27 25.18146 -7.77682 37000 ft 474 kts 154°
2026-04-29 07:28 25.12200 -7.74496 37000 ft 474 kts 154°
2026-04-29 07:28 25.06260 -7.71316 37000 ft 474 kts 154°
2026-04-29 07:29 25.00319 -7.68138 37000 ft 475 kts 154°
2026-04-29 07:29 24.94374 -7.64961 37000 ft 475 kts 154°
2026-04-29 07:30 24.88434 -7.61791 37000 ft 475 kts 154°
2026-04-29 07:30 24.82488 -7.58620 37000 ft 475 kts 154°
2026-04-29 07:31 24.73603 -7.53889 37000 ft 475 kts 154°
2026-04-29 07:31 24.67657 -7.50727 37000 ft 475 kts 154°
2026-04-29 07:32 24.61712 -7.47569 37000 ft 475 kts 154°
2026-04-29 07:32 24.55767 -7.44414 37000 ft 475 kts 154°
2026-04-29 07:33 24.49808 -7.41256 37000 ft 475 kts 154°
2026-04-29 07:33 24.43856 -7.38104 37001 ft 475 kts 154°
2026-04-29 07:34 24.37945 -7.34977 37000 ft 475 kts 154°
2026-04-29 07:34 24.31991 -7.31831 37000 ft 475 kts 154°
2026-04-29 07:35 24.26031 -7.28685 37001 ft 475 kts 154°
2026-04-29 07:35 24.20084 -7.25549 37001 ft 475 kts 154°
2026-04-29 07:36 24.14124 -7.22409 37001 ft 474 kts 154°
2026-04-29 07:36 24.08195 -7.19289 37002 ft 474 kts 154°
2026-04-29 07:37 24.02274 -7.16177 37000 ft 474 kts 154°
2026-04-29 07:37 23.96319 -7.13049 37001 ft 474 kts 154°
2026-04-29 07:38 23.90370 -7.09929 37002 ft 474 kts 154°
2026-04-29 07:38 23.84412 -7.06807 37001 ft 474 kts 154°
2026-04-29 07:39 23.78455 -7.03688 37001 ft 474 kts 154°
2026-04-29 07:39 23.72502 -7.00574 37000 ft 474 kts 154°
2026-04-29 07:40 23.66591 -6.97487 37001 ft 474 kts 154°
2026-04-29 07:40 23.60635 -6.94378 37000 ft 474 kts 154°
2026-04-29 07:41 23.54674 -6.91269 37000 ft 474 kts 154°
2026-04-29 07:41 23.48711 -6.88166 37000 ft 474 kts 154°
2026-04-29 07:42 23.42797 -6.85091 37000 ft 474 kts 154°
2026-04-29 07:42 23.36844 -6.81997 37000 ft 474 kts 155°
2026-04-29 07:43 23.30882 -6.78903 36999 ft 474 kts 155°
2026-04-29 07:43 23.24931 -6.75817 37000 ft 474 kts 155°
2026-04-29 07:44 23.18967 -6.72728 36999 ft 474 kts 155°
2026-04-29 07:44 23.13010 -6.69645 37000 ft 474 kts 155°
2026-04-29 07:45 23.07045 -6.66561 37001 ft 474 kts 155°
2026-04-29 07:45 23.01086 -6.63483 37000 ft 474 kts 155°
2026-04-29 07:46 22.95122 -6.60406 37001 ft 474 kts 155°
2026-04-29 07:46 22.89193 -6.57350 37001 ft 474 kts 155°
2026-04-29 07:47 22.83236 -6.54282 37000 ft 474 kts 155°
2026-04-29 07:47 22.77277 -6.51217 37000 ft 474 kts 155°
2026-04-29 07:48 22.71304 -6.48147 37001 ft 474 kts 155°
2026-04-29 07:48 22.65333 -6.45081 37000 ft 474 kts 155°
2026-04-29 07:49 22.59404 -6.42039 37000 ft 474 kts 155°
2026-04-29 07:49 22.53434 -6.38980 37001 ft 474 kts 155°
2026-04-29 07:50 22.47463 -6.35923 37000 ft 474 kts 155°
2026-04-29 07:50 22.41498 -6.32872 37000 ft 474 kts 155°
2026-04-29 07:51 22.35569 -6.29842 37000 ft 474 kts 155°
2026-04-29 07:51 22.29598 -6.26794 37000 ft 474 kts 155°
2026-04-29 07:52 22.23625 -6.23748 37000 ft 474 kts 155°
2026-04-29 07:52 22.17655 -6.20705 37000 ft 474 kts 155°
2026-04-29 07:53 22.11688 -6.17668 37000 ft 474 kts 155°
2026-04-29 07:53 22.05756 -6.14651 37000 ft 474 kts 155°
2026-04-29 07:54 21.99787 -6.11617 37000 ft 474 kts 155°
2026-04-29 07:54 21.93809 -6.08583 37000 ft 474 kts 155°
2026-04-29 07:55 21.87834 -6.05552 37000 ft 474 kts 155°
2026-04-29 07:55 21.81867 -6.02528 37002 ft 474 kts 155°
2026-04-29 07:56 21.75919 -5.99516 37001 ft 474 kts 155°
2026-04-29 07:56 21.69942 -5.96493 37002 ft 474 kts 155°
2026-04-29 07:57 21.63975 -5.93477 37001 ft 474 kts 155°
2026-04-29 07:57 21.58000 -5.90460 37001 ft 474 kts 155°
2026-04-29 07:58 21.52031 -5.87450 37001 ft 474 kts 155°
2026-04-29 07:58 21.46097 -5.84459 37000 ft 474 kts 155°
2026-04-29 07:59 21.40121 -5.81450 37000 ft 474 kts 155°
2026-04-29 07:59 21.34148 -5.78445 37000 ft 474 kts 155°
2026-04-29 08:00 21.28173 -5.75441 37000 ft 474 kts 155°
2026-04-29 08:00 21.22236 -5.72460 37000 ft 474 kts 155°
2026-04-29 08:01 21.16261 -5.69463 37001 ft 474 kts 155°
2026-04-29 08:01 21.10284 -5.66466 36999 ft 474 kts 155°
2026-04-29 08:02 21.04312 -5.63475 36999 ft 474 kts 155°
2026-04-29 08:02 20.98338 -5.60486 37000 ft 474 kts 155°
2026-04-29 08:03 20.92399 -5.57517 37001 ft 474 kts 155°
2026-04-29 08:03 20.86422 -5.54531 37000 ft 474 kts 155°
2026-04-29 08:04 20.80447 -5.51550 37000 ft 474 kts 155°
2026-04-29 08:04 20.74474 -5.48571 37000 ft 474 kts 155°
2026-04-29 08:05 20.68497 -5.45593 37000 ft 474 kts 155°
2026-04-29 08:05 20.62523 -5.42619 37000 ft 474 kts 155°
2026-04-29 08:06 20.56543 -5.39643 37000 ft 474 kts 155°
2026-04-29 08:06 20.50562 -5.36670 37000 ft 474 kts 155°
2026-04-29 08:07 20.44620 -5.33719 37000 ft 474 kts 155°
2026-04-29 08:07 20.38637 -5.30751 37000 ft 474 kts 155°
2026-04-29 08:08 20.33664 -5.28285 37000 ft 474 kts 155°
2026-04-29 08:08 20.27655 -5.25308 37000 ft 474 kts 155°
2026-04-29 08:09 20.21706 -5.22363 37000 ft 474 kts 155°
2026-04-29 08:09 20.15725 -5.19405 37000 ft 474 kts 155°
2026-04-29 08:10 20.09739 -5.16447 37000 ft 474 kts 155°
2026-04-29 08:10 20.03755 -5.13492 37000 ft 474 kts 155°
2026-04-29 08:11 19.97773 -5.10542 37000 ft 474 kts 155°
2026-04-29 08:11 19.91782 -5.07588 37000 ft 474 kts 155°
2026-04-29 08:12 19.85843 -5.04664 37000 ft 474 kts 155°
2026-04-29 08:12 19.79855 -5.01717 37000 ft 474 kts 155°
2026-04-29 08:13 19.73871 -4.98775 37000 ft 474 kts 155°
2026-04-29 08:13 19.67882 -4.95833 37000 ft 474 kts 155°
2026-04-29 08:14 19.61893 -4.92893 37000 ft 474 kts 155°
2026-04-29 08:14 19.55904 -4.89955 37000 ft 474 kts 155°
2026-04-29 08:15 19.49910 -4.87018 37000 ft 474 kts 155°
2026-04-29 08:15 19.43949 -4.84100 37000 ft 474 kts 155°
2026-04-29 08:16 19.37958 -4.81168 37000 ft 474 kts 155°
2026-04-29 08:16 19.31960 -4.78238 37000 ft 474 kts 155°
2026-04-29 08:17 19.25995 -4.75327 37001 ft 474 kts 155°
2026-04-29 08:17 19.20007 -4.72405 37000 ft 474 kts 155°
2026-04-29 08:18 19.14001 -4.69477 37000 ft 474 kts 155°
2026-04-29 08:18 19.08004 -4.66556 37000 ft 474 kts 155°
2026-04-29 08:19 19.02011 -4.63639 37000 ft 474 kts 155°
2026-04-29 08:19 18.96055 -4.60743 37001 ft 474 kts 155°
2026-04-29 08:20 18.90059 -4.57830 37000 ft 474 kts 155°
2026-04-29 08:20 18.84071 -4.54923 37000 ft 474 kts 155°
2026-04-29 08:21 18.78072 -4.52013 37000 ft 474 kts 155°
2026-04-29 08:21 18.72080 -4.49108 37000 ft 474 kts 155°
2026-04-29 08:22 18.66079 -4.46202 37000 ft 474 kts 155°
2026-04-29 08:22 18.60120 -4.43317 37000 ft 474 kts 155°
2026-04-29 08:23 18.54124 -4.40418 37000 ft 474 kts 155°
2026-04-29 08:23 18.48131 -4.37522 37000 ft 474 kts 155°
2026-04-29 08:24 18.42131 -4.34625 37000 ft 474 kts 155°
2026-04-29 08:24 18.36131 -4.31730 37000 ft 474 kts 155°
2026-04-29 08:25 18.30146 -4.28797 36995 ft 473 kts 154°
2026-04-29 08:25 18.24184 -4.25862 36994 ft 473 kts 155°
2026-04-29 08:26 18.18234 -4.22998 36992 ft 473 kts 155°
2026-04-29 08:26 18.12237 -4.20128 36993 ft 473 kts 155°
2026-04-29 08:27 18.06245 -4.17260 36994 ft 473 kts 155°
2026-04-29 08:27 18.00247 -4.14388 36996 ft 473 kts 155°
2026-04-29 08:28 17.94245 -4.11515 36997 ft 473 kts 155°
2026-04-29 08:28 17.88284 -4.08664 36998 ft 474 kts 155°
2026-04-29 08:29 17.82285 -4.05795 36999 ft 474 kts 155°
2026-04-29 08:29 17.76269 -4.02921 37001 ft 474 kts 155°
2026-04-29 08:30 17.67261 -3.98618 37002 ft 474 kts 155°
2026-04-29 08:31 17.61258 -3.95753 37002 ft 474 kts 155°
2026-04-29 08:31 17.55287 -3.92905 37003 ft 474 kts 155°
2026-04-29 08:32 17.49281 -3.90042 37003 ft 474 kts 155°
2026-04-29 08:32 17.43270 -3.87178 37003 ft 474 kts 155°
2026-04-29 08:33 17.37259 -3.84316 37003 ft 474 kts 155°
2026-04-29 08:33 17.31251 -3.81458 37003 ft 474 kts 155°
2026-04-29 08:34 17.25283 -3.78620 37003 ft 474 kts 155°
2026-04-29 08:34 17.19275 -3.75765 37003 ft 474 kts 155°
2026-04-29 08:35 17.13268 -3.72911 37002 ft 474 kts 155°
2026-04-29 08:35 17.07264 -3.70062 37002 ft 474 kts 155°
2026-04-29 08:36 17.01251 -3.67210 37002 ft 474 kts 155°
2026-04-29 08:36 16.95238 -3.64360 37001 ft 474 kts 156°
2026-04-29 08:37 16.89253 -3.61525 37003 ft 474 kts 156°
2026-04-29 08:37 16.83239 -3.58678 37002 ft 474 kts 156°
2026-04-29 08:38 16.77231 -3.55836 37002 ft 474 kts 156°
2026-04-29 08:38 16.71251 -3.53009 37001 ft 474 kts 156°
2026-04-29 08:39 16.65243 -3.50170 37001 ft 474 kts 156°
2026-04-29 08:39 16.59232 -3.47332 37002 ft 474 kts 156°
2026-04-29 08:40 16.53223 -3.44497 37002 ft 474 kts 156°
2026-04-29 08:40 16.47212 -3.41663 37001 ft 474 kts 156°
2026-04-29 08:41 16.41203 -3.38831 37001 ft 474 kts 156°
2026-04-29 08:41 16.35198 -3.36003 37001 ft 474 kts 156°
2026-04-29 08:42 16.29185 -3.33174 37001 ft 474 kts 156°
2026-04-29 08:42 16.23215 -3.30365 37001 ft 474 kts 156°
2026-04-29 08:43 16.17208 -3.27542 37001 ft 474 kts 156°
2026-04-29 08:43 16.11194 -3.24717 37001 ft 474 kts 156°
2026-04-29 08:44 16.05178 -3.21893 37001 ft 474 kts 156°
2026-04-29 08:44 15.99167 -3.19073 37000 ft 474 kts 156°
2026-04-29 08:45 15.93155 -3.16255 37000 ft 474 kts 156°
2026-04-29 08:45 15.87149 -3.13441 37000 ft 474 kts 156°
2026-04-29 08:46 15.81172 -3.10642 37000 ft 474 kts 156°
2026-04-29 08:46 15.75154 -3.07827 37000 ft 474 kts 156°
2026-04-29 08:47 15.69147 -3.05018 37000 ft 474 kts 156°
2026-04-29 08:47 15.63134 -3.02208 37000 ft 474 kts 156°
2026-04-29 08:48 15.57124 -2.99401 37001 ft 474 kts 156°
2026-04-29 08:48 15.51111 -2.96595 37000 ft 474 kts 156°
2026-04-29 08:49 15.45099 -2.93791 37000 ft 474 kts 156°
2026-04-29 08:49 15.39119 -2.91004 36999 ft 474 kts 156°
2026-04-29 08:50 15.33105 -2.88203 37000 ft 474 kts 156°
2026-04-29 08:50 15.27142 -2.85427 37000 ft 474 kts 156°
2026-04-29 08:51 15.21119 -2.82625 37000 ft 474 kts 156°
2026-04-29 08:51 15.15090 -2.79822 37000 ft 477 kts 156°
2026-04-29 08:52 15.09064 -2.77022 37000 ft 477 kts 156°
2026-04-29 08:52 15.03044 -2.74228 37001 ft 473 kts 156°
2026-04-29 08:53 14.97023 -2.71437 37000 ft 474 kts 156°
2026-04-29 08:53 14.90995 -2.68643 37000 ft 474 kts 156°
2026-04-29 08:54 14.85016 -2.65874 37000 ft 474 kts 156°
2026-04-29 08:54 14.79001 -2.63090 36999 ft 474 kts 156°
2026-04-29 08:55 14.72979 -2.60305 36998 ft 474 kts 156°
2026-04-29 08:55 14.66962 -2.57523 36998 ft 474 kts 156°
2026-04-29 08:56 14.61960 -2.55212 36998 ft 474 kts 156°
2026-04-29 08:56 14.55945 -2.52434 36999 ft 474 kts 156°
2026-04-29 08:57 14.49924 -2.49656 37000 ft 474 kts 156°
2026-04-29 08:57 14.43904 -2.46879 37000 ft 474 kts 156°
2026-04-29 08:58 14.37881 -2.44103 37000 ft 474 kts 156°
2026-04-29 08:58 14.31866 -2.41331 36999 ft 474 kts 156°
2026-04-29 08:59 14.25887 -2.38576 36999 ft 474 kts 156°
2026-04-29 08:59 14.19865 -2.35805 36999 ft 474 kts 156°
2026-04-29 09:00 14.13840 -2.33033 36999 ft 474 kts 156°
2026-04-29 09:00 14.07813 -2.30262 36999 ft 474 kts 156°
2026-04-29 09:01 14.01839 -2.27517 36999 ft 474 kts 156°
2026-04-29 09:01 13.95817 -2.24751 36999 ft 474 kts 156°
2026-04-29 09:02 13.89793 -2.21986 36998 ft 474 kts 156°
2026-04-29 09:02 13.83770 -2.19223 36998 ft 474 kts 156°
2026-04-29 09:03 13.77746 -2.16461 37000 ft 474 kts 156°
2026-04-29 09:03 13.71720 -2.13701 37000 ft 474 kts 156°
2026-04-29 09:04 13.65695 -2.10941 37001 ft 474 kts 156°
2026-04-29 09:04 13.59668 -2.08183 37001 ft 474 kts 156°
2026-04-29 09:05 13.53640 -2.05425 37000 ft 474 kts 156°
2026-04-29 09:05 13.47615 -2.02671 37000 ft 474 kts 156°
2026-04-29 09:06 13.41591 -1.99918 37001 ft 474 kts 156°
2026-04-29 09:06 13.35561 -1.97165 36999 ft 474 kts 156°
2026-04-29 09:07 13.29534 -1.94414 37000 ft 474 kts 156°
2026-04-29 09:07 13.23505 -1.91664 36999 ft 474 kts 156°
2026-04-29 09:08 13.17479 -1.88916 37001 ft 474 kts 156°
2026-04-29 09:08 13.11452 -1.86170 37001 ft 474 kts 156°
2026-04-29 09:09 13.05425 -1.83425 37001 ft 474 kts 156°
2026-04-29 09:09 12.99398 -1.80682 37000 ft 474 kts 156°
2026-04-29 09:10 12.93369 -1.77938 37000 ft 474 kts 156°
2026-04-29 09:10 12.87380 -1.75215 37000 ft 474 kts 156°
2026-04-29 09:11 12.81352 -1.72475 36999 ft 474 kts 156°
2026-04-29 09:11 12.75326 -1.69738 37000 ft 474 kts 156°
2026-04-29 09:12 12.69297 -1.67001 37001 ft 474 kts 156°
2026-04-29 09:12 12.63267 -1.64264 37001 ft 474 kts 156°
2026-04-29 09:13 12.57236 -1.61529 37000 ft 474 kts 156°
2026-04-29 09:13 12.51207 -1.58796 37001 ft 474 kts 156°
2026-04-29 09:14 12.45177 -1.56064 37001 ft 474 kts 156°
2026-04-29 09:14 12.39147 -1.53333 37001 ft 474 kts 156°
2026-04-29 09:15 12.33120 -1.50603 37000 ft 474 kts 156°
2026-04-29 09:15 12.27106 -1.47829 37000 ft 474 kts 156°
2026-04-29 09:16 12.21102 -1.45052 37000 ft 474 kts 156°
2026-04-29 09:16 12.15090 -1.42280 37000 ft 474 kts 156°
2026-04-29 09:17 12.09114 -1.39528 37000 ft 474 kts 156°
2026-04-29 09:17 12.03128 -1.36772 36999 ft 474 kts 156°
2026-04-29 09:18 11.97118 -1.34007 36999 ft 474 kts 156°
2026-04-29 09:18 11.91104 -1.31241 36999 ft 474 kts 156°
2026-04-29 09:19 11.85090 -1.28476 37000 ft 474 kts 156°
2026-04-29 09:19 11.79073 -1.25712 37000 ft 474 kts 156°
2026-04-29 09:20 11.73063 -1.22952 37000 ft 474 kts 156°
2026-04-29 09:20 11.67044 -1.20190 37001 ft 474 kts 156°
2026-04-29 09:21 11.61032 -1.17432 37000 ft 474 kts 156°
2026-04-29 09:21 11.55017 -1.14673 37001 ft 474 kts 156°
2026-04-29 09:22 11.49002 -1.11916 37002 ft 474 kts 156°
2026-04-29 09:22 11.43033 -1.09182 37002 ft 474 kts 156°
2026-04-29 09:23 11.37018 -1.06427 37002 ft 474 kts 156°
2026-04-29 09:23 11.31003 -1.03675 37001 ft 474 kts 156°
2026-04-29 09:24 11.24994 -1.00925 37001 ft 474 kts 156°
2026-04-29 09:24 11.18982 -0.98176 36998 ft 474 kts 156°
2026-04-29 09:25 11.12965 -0.95426 37001 ft 474 kts 156°
2026-04-29 09:25 11.06953 -0.92680 37000 ft 474 kts 156°
2026-04-29 09:26 11.00943 -0.89935 37002 ft 474 kts 156°
2026-04-29 09:26 10.95009 -0.87023 37001 ft 473 kts 153°
2026-04-29 09:27 10.89175 -0.83908 37001 ft 473 kts 153°
2026-04-29 09:27 10.83324 -0.80833 37001 ft 473 kts 153°
2026-04-29 09:28 10.77498 -0.77802 37001 ft 473 kts 153°
2026-04-29 09:28 10.71633 -0.74756 37002 ft 473 kts 153°
2026-04-29 09:29 10.65770 -0.71713 37003 ft 473 kts 153°
2026-04-29 09:29 10.56971 -0.67147 37002 ft 473 kts 153°
2026-04-29 09:30 10.51105 -0.64104 37001 ft 473 kts 153°
2026-04-29 09:30 10.45238 -0.61063 36998 ft 473 kts 153°
2026-04-29 09:31 10.39371 -0.58022 36999 ft 473 kts 153°
2026-04-29 09:31 10.33506 -0.54984 37001 ft 473 kts 153°
2026-04-29 09:32 10.27638 -0.51946 37002 ft 473 kts 153°
2026-04-29 09:32 10.21772 -0.48910 37003 ft 473 kts 153°
2026-04-29 09:33 10.15908 -0.45876 37002 ft 473 kts 153°
2026-04-29 09:33 10.10044 -0.42846 37002 ft 473 kts 153°
2026-04-29 09:34 10.04099 -0.39988 37000 ft 473 kts 155°
2026-04-29 09:34 9.98132 -0.37181 36999 ft 473 kts 155°
2026-04-29 09:35 9.92171 -0.34346 36998 ft 473 kts 155°
2026-04-29 09:35 9.86216 -0.31505 36998 ft 473 kts 155°
2026-04-29 09:36 9.80260 -0.28664 36998 ft 473 kts 155°
2026-04-29 09:36 9.74300 -0.25822 36999 ft 473 kts 155°
2026-04-29 09:37 9.68342 -0.22983 37000 ft 473 kts 155°
2026-04-29 09:37 9.62407 -0.20155 37000 ft 473 kts 155°
2026-04-29 09:38 9.56451 -0.17319 37000 ft 473 kts 155°
2026-04-29 09:38 9.50529 -0.14500 37001 ft 473 kts 155°
2026-04-29 09:39 9.44568 -0.11663 37001 ft 473 kts 155°
2026-04-29 09:39 9.38610 -0.08829 37001 ft 473 kts 155°
2026-04-29 09:40 9.32653 -0.05996 37002 ft 473 kts 155°
2026-04-29 09:40 9.26693 -0.03164 37002 ft 473 kts 155°
2026-04-29 09:41 9.20736 -0.00333 37001 ft 473 kts 155°
2026-04-29 09:41 9.14775 0.02500 36999 ft 473 kts 155°
2026-04-29 09:42 9.08821 0.05331 37000 ft 473 kts 155°
2026-04-29 09:42 9.02862 0.08162 37000 ft 473 kts 155°
2026-04-29 09:43 8.96900 0.10993 37002 ft 473 kts 155°
2026-04-29 09:43 8.90947 0.13819 37002 ft 473 kts 155°
2026-04-29 09:44 8.84988 0.16647 37000 ft 473 kts 155°
2026-04-29 09:44 8.80052 0.18988 37003 ft 473 kts 155°
2026-04-29 09:45 8.74097 0.21813 37003 ft 473 kts 155°
2026-04-29 09:45 8.68168 0.24623 36999 ft 473 kts 155°
2026-04-29 09:46 8.62209 0.27447 37000 ft 473 kts 155°
2026-04-29 09:46 8.56257 0.30267 36999 ft 473 kts 155°
2026-04-29 09:47 8.50298 0.33089 37001 ft 473 kts 155°
2026-04-29 09:47 8.44339 0.35910 37000 ft 473 kts 155°
2026-04-29 09:48 8.38385 0.38727 37001 ft 473 kts 155°
2026-04-29 09:48 8.32431 0.41552 36997 ft 473 kts 154°
2026-04-29 09:49 8.26511 0.44433 36994 ft 472 kts 154°
2026-04-29 09:49 8.20572 0.47264 37000 ft 473 kts 154°
2026-04-29 09:50 8.14597 0.50075 37000 ft 474 kts 154°
2026-04-29 09:50 8.08614 0.52889 37000 ft 474 kts 154°
2026-04-29 09:51 8.02637 0.55701 37000 ft 474 kts 155°
2026-04-29 09:51 7.96494 0.58091 37000 ft 473 kts 160°
2026-04-29 09:52 7.90302 0.60376 37005 ft 474 kts 160°
2026-04-29 09:52 7.84103 0.62673 36984 ft 475 kts 160°
2026-04-29 09:53 7.77938 0.64956 36996 ft 475 kts 160°
2026-04-29 09:53 7.71729 0.67254 37009 ft 475 kts 160°
2026-04-29 09:54 7.65520 0.69552 37006 ft 475 kts 160°
2026-04-29 09:54 7.59312 0.71850 37003 ft 475 kts 160°
2026-04-29 09:55 7.53099 0.74149 37001 ft 476 kts 160°
2026-04-29 09:55 7.46885 0.76448 36997 ft 476 kts 160°
2026-04-29 09:56 7.40665 0.78749 36993 ft 476 kts 160°
2026-04-29 09:56 7.34441 0.81051 36998 ft 476 kts 160°
2026-04-29 09:57 7.28223 0.83351 37011 ft 476 kts 160°
2026-04-29 09:57 7.22010 0.85648 37013 ft 475 kts 160°
2026-04-29 09:58 7.15798 0.87944 37013 ft 475 kts 160°
2026-04-29 09:58 7.09594 0.90237 37012 ft 475 kts 160°
2026-04-29 09:59 7.03397 0.92527 37011 ft 474 kts 160°
2026-04-29 09:59 6.97204 0.94814 37009 ft 474 kts 160°
2026-04-29 10:00 6.91015 0.97100 37008 ft 474 kts 160°
2026-04-29 10:00 6.84824 0.99386 37006 ft 473 kts 160°
2026-04-29 10:01 6.78643 1.01668 37005 ft 473 kts 160°
2026-04-29 10:01 6.72463 1.03949 37005 ft 473 kts 160°
2026-04-29 10:02 6.66284 1.06229 37004 ft 473 kts 160°
2026-04-29 10:02 6.60144 1.08489 37004 ft 473 kts 160°
2026-04-29 10:03 6.54076 1.11026 37001 ft 472 kts 156°
2026-04-29 10:03 6.48069 1.13705 37002 ft 473 kts 156°
2026-04-29 10:04 6.42053 1.16376 37002 ft 473 kts 156°
2026-04-29 10:04 6.36039 1.19046 37002 ft 473 kts 156°
2026-04-29 10:05 6.30024 1.21716 37004 ft 472 kts 156°
2026-04-29 10:05 6.24013 1.24385 37004 ft 472 kts 156°
2026-04-29 10:06 6.18169 1.27387 37002 ft 472 kts 148°
2026-04-29 10:06 6.12923 1.31348 37000 ft 472 kts 140°
2026-04-29 10:07 6.07838 1.35530 37001 ft 472 kts 141°
2026-04-29 10:07 6.02739 1.39693 37001 ft 472 kts 141°
2026-04-29 10:08 5.97643 1.43856 37001 ft 472 kts 141°
2026-04-29 10:08 5.92545 1.48023 37001 ft 472 kts 141°
2026-04-29 10:09 5.87447 1.52188 37001 ft 472 kts 141°
2026-04-29 10:09 5.82352 1.56351 37001 ft 472 kts 141°
2026-04-29 10:10 5.77255 1.60514 37001 ft 472 kts 141°
2026-04-29 10:10 5.72157 1.64676 37001 ft 472 kts 141°
2026-04-29 10:11 5.67078 1.68822 37001 ft 472 kts 141°
2026-04-29 10:11 5.61982 1.72981 37001 ft 472 kts 141°
2026-04-29 10:12 5.56885 1.77140 37001 ft 472 kts 141°
2026-04-29 10:12 5.51785 1.81300 37000 ft 472 kts 141°
2026-04-29 10:13 5.46704 1.85417 37001 ft 472 kts 141°
2026-04-29 10:13 5.41589 1.89553 37001 ft 472 kts 141°
2026-04-29 10:14 5.36477 1.93690 37000 ft 472 kts 141°
2026-04-29 10:14 5.31360 1.97831 37000 ft 472 kts 141°
2026-04-29 10:15 5.26240 2.01973 37000 ft 472 kts 141°
2026-04-29 10:15 5.21124 2.06111 37000 ft 472 kts 141°
2026-04-29 10:16 5.16889 2.09564 36998 ft 472 kts 140°
2026-04-29 10:16 5.10936 2.14413 36997 ft 472 kts 141°
2026-04-29 10:17 5.05826 2.18541 36996 ft 472 kts 141°
2026-04-29 10:17 5.00746 2.22638 36997 ft 472 kts 141°
2026-04-29 10:18 4.95631 2.26760 36997 ft 472 kts 141°
2026-04-29 10:18 4.90515 2.30884 36998 ft 472 kts 141°
2026-04-29 10:19 4.85400 2.35007 36999 ft 472 kts 141°
2026-04-29 10:19 4.80282 2.39132 36999 ft 472 kts 141°
2026-04-29 10:20 4.75164 2.43257 37000 ft 472 kts 141°
2026-04-29 10:20 4.70044 2.47383 37000 ft 472 kts 141°
2026-04-29 10:21 4.64955 2.51483 37001 ft 472 kts 141°
2026-04-29 10:21 4.59836 2.55608 37001 ft 472 kts 141°
2026-04-29 10:22 4.54717 2.59732 37001 ft 472 kts 141°
2026-04-29 10:22 4.49592 2.63860 37001 ft 472 kts 141°
2026-04-29 10:23 4.44472 2.67984 37001 ft 472 kts 141°
2026-04-29 10:23 4.39351 2.72107 37001 ft 472 kts 141°
2026-04-29 10:24 4.34228 2.76232 37001 ft 472 kts 141°
2026-04-29 10:24 4.29105 2.80356 37001 ft 472 kts 141°
2026-04-29 10:25 4.23986 2.84477 37002 ft 472 kts 141°
2026-04-29 10:25 4.18862 2.88601 37001 ft 472 kts 141°
2026-04-29 10:26 4.13739 2.92724 37001 ft 472 kts 141°
2026-04-29 10:26 4.08616 2.96846 37001 ft 472 kts 141°
2026-04-29 10:27 4.00967 3.02999 37001 ft 472 kts 141°
2026-04-29 10:28 3.95853 3.07128 37001 ft 472 kts 141°
2026-04-29 10:28 3.90750 3.11270 37001 ft 472 kts 141°
2026-04-29 10:29 3.85645 3.15409 37001 ft 472 kts 141°
2026-04-29 10:29 3.80543 3.19553 37000 ft 472 kts 140°
2026-04-29 10:30 3.75458 3.23715 36998 ft 472 kts 141°
2026-04-29 10:30 3.70363 3.27851 36997 ft 472 kts 141°
2026-04-29 10:31 3.65256 3.31981 36997 ft 472 kts 141°
2026-04-29 10:31 3.60150 3.36108 36997 ft 472 kts 141°
2026-04-29 10:32 3.55069 3.40216 36998 ft 472 kts 141°
2026-04-29 10:32 3.49963 3.44344 36998 ft 472 kts 141°
2026-04-29 10:33 3.45716 3.47778 36999 ft 472 kts 141°
2026-04-29 10:33 3.39783 3.52575 37000 ft 472 kts 141°
2026-04-29 10:34 3.34671 3.56708 37000 ft 472 kts 141°
2026-04-29 10:34 3.30407 3.60155 37001 ft 472 kts 141°
2026-04-29 10:35 3.25296 3.64287 37001 ft 472 kts 141°
2026-04-29 10:35 3.20187 3.68417 37001 ft 472 kts 141°
2026-04-29 10:36 3.15109 3.72521 37001 ft 472 kts 141°
2026-04-29 10:36 3.10001 3.76650 37001 ft 472 kts 141°
2026-04-29 10:37 3.04888 3.80782 37001 ft 472 kts 141°
2026-04-29 10:37 2.99776 3.84913 37001 ft 472 kts 141°
2026-04-29 10:38 2.94666 3.89042 37001 ft 472 kts 141°
2026-04-29 10:38 2.89555 3.93172 37001 ft 472 kts 141°
2026-04-29 10:39 2.84440 3.97304 37001 ft 472 kts 141°
2026-04-29 10:39 2.79332 4.01430 37001 ft 472 kts 141°
2026-04-29 10:40 2.74221 4.05560 37001 ft 472 kts 141°
2026-04-29 10:40 2.69109 4.09688 37001 ft 472 kts 141°
2026-04-29 10:41 2.63997 4.13817 37001 ft 472 kts 141°
2026-04-29 10:41 2.58888 4.17943 37001 ft 472 kts 141°
2026-04-29 10:42 2.53773 4.22073 37001 ft 472 kts 141°
2026-04-29 10:42 2.48664 4.26198 37001 ft 472 kts 141°
2026-04-29 10:43 2.43551 4.30326 37000 ft 472 kts 141°
2026-04-29 10:43 2.38441 4.34451 37001 ft 472 kts 141°
2026-04-29 10:44 2.33328 4.38578 37001 ft 472 kts 141°
2026-04-29 10:44 2.28219 4.42702 37001 ft 472 kts 141°
2026-04-29 10:45 2.23108 4.46827 37001 ft 472 kts 141°
2026-04-29 10:45 2.17995 4.50953 37000 ft 472 kts 141°
2026-04-29 10:46 2.12918 4.55049 37000 ft 472 kts 141°
2026-04-29 10:46 2.07805 4.59175 37000 ft 472 kts 141°
2026-04-29 10:47 2.02695 4.63298 37000 ft 472 kts 141°
2026-04-29 10:47 1.97584 4.67421 37000 ft 472 kts 141°
2026-04-29 10:48 1.92473 4.71544 37000 ft 472 kts 141°
2026-04-29 10:48 1.87360 4.75668 37000 ft 472 kts 141°
2026-04-29 10:49 1.82248 4.79791 37000 ft 472 kts 141°
2026-04-29 10:49 1.77136 4.83914 37000 ft 472 kts 141°
2026-04-29 10:50 1.72026 4.88035 37000 ft 472 kts 141°
2026-04-29 10:50 1.66912 4.92158 37000 ft 472 kts 141°
2026-04-29 10:51 1.61803 4.96278 37000 ft 472 kts 141°
2026-04-29 10:51 1.56689 5.00401 37000 ft 472 kts 141°
2026-04-29 10:52 1.51578 5.04522 37000 ft 472 kts 141°
2026-04-29 10:52 1.46464 5.08644 37000 ft 472 kts 141°
2026-04-29 10:53 1.41354 5.12764 37000 ft 472 kts 141°
2026-04-29 10:53 1.36244 5.16883 37000 ft 472 kts 141°
2026-04-29 10:54 1.31130 5.21005 37000 ft 472 kts 141°
2026-04-29 10:54 1.26015 5.25127 37000 ft 472 kts 141°
2026-04-29 10:55 1.20906 5.29245 37000 ft 472 kts 141°
2026-04-29 10:55 1.15789 5.33369 37000 ft 472 kts 141°
2026-04-29 10:56 1.10678 5.37488 37000 ft 472 kts 141°
2026-04-29 10:56 1.05565 5.41608 37000 ft 472 kts 141°
2026-04-29 10:57 1.00454 5.45726 37000 ft 472 kts 141°
2026-04-29 10:57 0.95638 5.50109 36998 ft 472 kts 131°
2026-04-29 10:58 0.91922 5.55499 36997 ft 472 kts 117°
2026-04-29 10:58 0.89150 5.61446 36996 ft 472 kts 115°
2026-04-29 10:59 0.86378 5.67396 36999 ft 472 kts 115°
2026-04-29 10:59 0.83603 5.73349 37000 ft 473 kts 115°
2026-04-29 11:00 0.80831 5.79305 37001 ft 473 kts 115°
2026-04-29 11:00 0.78058 5.85264 37001 ft 473 kts 115°
2026-04-29 11:01 0.75287 5.91221 37001 ft 473 kts 115°
2026-04-29 11:01 0.72515 5.97177 37001 ft 473 kts 115°
2026-04-29 11:02 0.69741 6.03137 37001 ft 473 kts 115°
2026-04-29 11:02 0.66970 6.09093 37001 ft 473 kts 115°
2026-04-29 11:03 0.64197 6.15050 37001 ft 473 kts 115°
2026-04-29 11:03 0.61426 6.21005 37001 ft 473 kts 115°
2026-04-29 11:04 0.58654 6.26960 37001 ft 473 kts 115°
2026-04-29 11:04 0.55882 6.32917 37001 ft 473 kts 115°
2026-04-29 11:05 0.53107 6.38879 37001 ft 473 kts 115°
2026-04-29 11:05 0.50334 6.44836 37001 ft 473 kts 115°
2026-04-29 11:06 0.47609 6.50690 37000 ft 473 kts 115°
2026-04-29 11:06 0.44834 6.56652 37000 ft 473 kts 115°
2026-04-29 11:07 0.42058 6.62621 37000 ft 473 kts 115°
2026-04-29 11:07 0.39153 6.68470 37000 ft 472 kts 122°
2026-04-29 11:08 0.34967 6.73509 36997 ft 472 kts 138°
2026-04-29 11:08 0.29712 6.77428 36997 ft 471 kts 145°
2026-04-29 11:09 0.24339 6.81208 36998 ft 472 kts 145°
2026-04-29 11:09 0.18975 6.84997 37000 ft 472 kts 145°
2026-04-29 11:10 0.13637 6.88761 37001 ft 472 kts 145°
2026-04-29 11:10 0.08262 6.92550 37001 ft 472 kts 145°
2026-04-29 11:11 0.02890 6.96337 37001 ft 472 kts 145°
2026-04-29 11:11 -0.02482 7.00124 37001 ft 472 kts 145°
2026-04-29 11:12 -0.07849 7.03908 37001 ft 472 kts 145°
2026-04-29 11:12 -0.13219 7.07693 37001 ft 472 kts 145°
2026-04-29 11:13 -0.18589 7.11478 37001 ft 472 kts 145°
2026-04-29 11:13 -0.23954 7.15260 37001 ft 472 kts 145°
2026-04-29 11:14 -0.29322 7.19044 37001 ft 472 kts 145°
2026-04-29 11:14 -0.34649 7.22799 37001 ft 472 kts 145°
2026-04-29 11:15 -0.39981 7.26558 37001 ft 472 kts 145°
2026-04-29 11:15 -0.45349 7.30344 37001 ft 472 kts 145°
2026-04-29 11:16 -0.50680 7.34106 37000 ft 472 kts 145°
2026-04-29 11:16 -0.56050 7.37896 37000 ft 472 kts 145°
2026-04-29 11:17 -0.61414 7.41682 37000 ft 472 kts 145°
2026-04-29 11:17 -0.66753 7.45450 37000 ft 472 kts 145°
2026-04-29 11:18 -0.72124 7.49240 37000 ft 472 kts 145°
2026-04-29 11:18 -0.77500 7.53017 37000 ft 472 kts 145°
2026-04-29 11:19 -0.82878 7.56790 37000 ft 472 kts 145°
2026-04-29 11:19 -0.88210 7.60552 37000 ft 472 kts 145°
2026-04-29 11:20 -0.93576 7.64341 37000 ft 472 kts 145°
2026-04-29 11:20 -0.98945 7.68131 37000 ft 472 kts 145°
2026-04-29 11:21 -1.03408 7.71281 37000 ft 472 kts 145°
2026-04-29 11:21 -1.08771 7.75074 37000 ft 472 kts 145°
2026-04-29 11:22 -1.14133 7.78867 37000 ft 472 kts 145°
2026-04-29 11:22 -1.19493 7.82659 37000 ft 472 kts 145°
2026-04-29 11:23 -1.24853 7.86450 37000 ft 472 kts 145°
2026-04-29 11:23 -1.30181 7.90219 37000 ft 472 kts 145°
2026-04-29 11:24 -1.35545 7.94013 37000 ft 472 kts 145°
2026-04-29 11:24 -1.40913 7.97789 37000 ft 472 kts 145°
2026-04-29 11:25 -1.46289 8.01568 37000 ft 472 kts 145°
2026-04-29 11:25 -1.51660 8.05346 37000 ft 472 kts 145°
2026-04-29 11:26 -1.59695 8.11000 37000 ft 472 kts 145°
2026-04-29 11:26 -1.65073 8.14784 37000 ft 472 kts 145°
2026-04-29 11:27 -1.70442 8.18565 37000 ft 472 kts 144°
2026-04-29 11:27 -1.75779 8.22373 36998 ft 472 kts 144°
2026-04-29 11:28 -1.81132 8.26173 36996 ft 471 kts 144°
2026-04-29 11:28 -1.86496 8.29958 36996 ft 471 kts 144°
2026-04-29 11:29 -1.91861 8.33739 36996 ft 471 kts 144°
2026-04-29 11:29 -1.97228 8.37523 36997 ft 472 kts 144°
2026-04-29 11:30 -2.02560 8.41283 36998 ft 472 kts 144°
2026-04-29 11:30 -2.07932 8.45073 36999 ft 472 kts 144°
2026-04-29 11:31 -2.13298 8.48858 36999 ft 472 kts 144°
2026-04-29 11:31 -2.18674 8.52650 37000 ft 472 kts 144°
2026-04-29 11:32 -2.24045 8.56439 37001 ft 472 kts 144°
2026-04-29 11:32 -2.29376 8.60202 37001 ft 472 kts 144°
2026-04-29 11:33 -2.34750 8.63995 37001 ft 472 kts 144°
2026-04-29 11:33 -2.40120 8.67786 37001 ft 472 kts 145°
2026-04-29 11:34 -2.45487 8.71576 37001 ft 472 kts 145°
2026-04-29 11:34 -2.50857 8.75368 37002 ft 472 kts 145°
2026-04-29 11:35 -2.56223 8.79158 37001 ft 472 kts 145°
2026-04-29 11:35 -2.61588 8.82949 37002 ft 472 kts 145°
2026-04-29 11:36 -2.66929 8.86724 37002 ft 472 kts 145°
2026-04-29 11:36 -2.72300 8.90519 37001 ft 472 kts 145°
2026-04-29 11:37 -2.77663 8.94310 37001 ft 472 kts 145°
2026-04-29 11:37 -2.82999 8.98082 37001 ft 472 kts 145°
2026-04-29 11:38 -2.88366 9.01876 37001 ft 472 kts 145°
2026-04-29 11:38 -2.93734 9.05672 37001 ft 472 kts 145°
2026-04-29 11:39 -2.99103 9.09468 37001 ft 472 kts 145°
2026-04-29 11:39 -3.04465 9.13260 37001 ft 472 kts 145°
2026-04-29 11:40 -3.09828 9.17054 37001 ft 472 kts 145°
2026-04-29 11:40 -3.15161 9.20827 37001 ft 472 kts 145°
2026-04-29 11:41 -3.20527 9.24623 37001 ft 472 kts 145°
2026-04-29 11:41 -3.25893 9.28420 37001 ft 472 kts 145°
2026-04-29 11:42 -3.31257 9.32217 37001 ft 472 kts 145°
2026-04-29 11:42 -3.36587 9.35990 37001 ft 472 kts 145°
2026-04-29 11:43 -3.41957 9.39791 37001 ft 472 kts 145°
2026-04-29 11:43 -3.47322 9.43590 37000 ft 472 kts 145°
2026-04-29 11:44 -3.52655 9.47367 37001 ft 472 kts 145°
2026-04-29 11:44 -3.58018 9.51166 37001 ft 472 kts 145°
2026-04-29 11:45 -3.63340 9.54935 37000 ft 472 kts 145°
2026-04-29 11:45 -3.68703 9.58736 37000 ft 472 kts 145°
2026-04-29 11:46 -3.74071 9.62539 37000 ft 472 kts 145°
2026-04-29 11:46 -3.79431 9.66338 37000 ft 472 kts 145°
2026-04-29 11:47 -3.84797 9.70141 37000 ft 472 kts 145°
2026-04-29 11:47 -3.90126 9.73920 37000 ft 472 kts 145°
2026-04-29 11:48 -3.95493 9.77725 37000 ft 472 kts 145°
2026-04-29 11:48 -4.00861 9.81533 37000 ft 472 kts 145°
2026-04-29 11:49 -4.06221 9.85334 37000 ft 472 kts 145°
2026-04-29 11:49 -4.11581 9.89137 37000 ft 472 kts 145°
2026-04-29 11:50 -4.16944 9.92942 37000 ft 472 kts 145°
2026-04-29 11:50 -4.22271 9.96722 37000 ft 472 kts 145°
2026-04-29 11:51 -4.27626 10.00523 37000 ft 472 kts 145°
2026-04-29 11:51 -4.32991 10.04331 37000 ft 472 kts 145°
2026-04-29 11:52 -4.38351 10.08137 37000 ft 472 kts 145°
2026-04-29 11:52 -4.43709 10.11942 37000 ft 472 kts 145°
2026-04-29 11:53 -4.49067 10.15748 37000 ft 472 kts 145°
2026-04-29 11:53 -4.54425 10.19554 37000 ft 472 kts 145°
2026-04-29 11:54 -4.59753 10.23340 37000 ft 472 kts 145°
2026-04-29 11:54 -4.65108 10.27146 37000 ft 472 kts 145°
2026-04-29 11:55 -4.70468 10.30956 37000 ft 472 kts 145°
2026-04-29 11:55 -4.75837 10.34774 37000 ft 472 kts 145°
2026-04-29 11:56 -4.81195 10.38584 37000 ft 472 kts 145°
2026-04-29 11:56 -4.86519 10.42371 37000 ft 472 kts 145°
2026-04-29 11:57 -4.91875 10.46181 37000 ft 472 kts 145°
2026-04-29 11:57 -4.97239 10.49998 37000 ft 472 kts 144°
2026-04-29 11:58 -5.02593 10.53808 37000 ft 472 kts 144°
2026-04-29 11:58 -5.07960 10.57628 37000 ft 472 kts 144°
2026-04-29 11:59 -5.13313 10.61440 37000 ft 472 kts 144°
2026-04-29 11:59 -5.18639 10.65233 37000 ft 472 kts 144°
2026-04-29 12:00 -5.23993 10.69046 37000 ft 472 kts 144°
2026-04-29 12:00 -5.29344 10.72859 37000 ft 472 kts 144°
2026-04-29 12:01 -5.34692 10.76638 37000 ft 472 kts 145°
2026-04-29 12:01 -5.40078 10.80411 37000 ft 472 kts 145°
2026-04-29 12:02 -5.45461 10.84190 37000 ft 472 kts 145°
2026-04-29 12:02 -5.50860 10.87984 37000 ft 472 kts 145°
2026-04-29 12:03 -5.56212 10.91747 37000 ft 472 kts 145°
2026-04-29 12:03 -5.61590 10.95530 37000 ft 472 kts 145°
2026-04-29 12:04 -5.66960 10.99336 36998 ft 472 kts 144°
2026-04-29 12:04 -5.72321 11.03137 36997 ft 471 kts 144°
2026-04-29 12:05 -5.77678 11.06908 36996 ft 471 kts 145°
2026-04-29 12:05 -5.83059 11.10689 36997 ft 471 kts 145°
2026-04-29 12:06 -5.88402 11.14445 36997 ft 472 kts 145°
2026-04-29 12:06 -5.93781 11.18227 36998 ft 472 kts 145°
2026-04-29 12:07 -5.99161 11.22013 36998 ft 472 kts 145°
2026-04-29 12:07 -6.04541 11.25800 36999 ft 472 kts 145°
2026-04-29 12:08 -6.09021 11.28954 37000 ft 472 kts 145°
2026-04-29 12:08 -6.14399 11.32742 37000 ft 472 kts 145°
2026-04-29 12:09 -6.20651 11.37147 37001 ft 472 kts 145°
2026-04-29 12:09 -6.25159 11.40324 37001 ft 472 kts 145°
2026-04-29 12:10 -6.30503 11.44092 37001 ft 472 kts 145°
2026-04-29 12:10 -6.35884 11.47887 37001 ft 472 kts 145°
2026-04-29 12:11 -6.41265 11.51683 37001 ft 472 kts 145°
2026-04-29 12:11 -6.46647 11.55481 37001 ft 472 kts 145°
2026-04-29 12:12 -6.52024 11.59276 37001 ft 472 kts 145°
2026-04-29 12:12 -6.57400 11.63072 37001 ft 472 kts 145°
2026-04-29 12:13 -6.62780 11.66873 37001 ft 472 kts 145°
2026-04-29 12:13 -6.68087 11.70623 37001 ft 472 kts 145°
2026-04-29 12:14 -6.73461 11.74421 37001 ft 472 kts 145°
2026-04-29 12:14 -6.78842 11.78225 37001 ft 472 kts 145°
2026-04-29 12:15 -6.84217 11.82026 37001 ft 472 kts 145°
2026-04-29 12:15 -6.89597 11.85832 37001 ft 472 kts 145°
2026-04-29 12:16 -6.94943 11.89677 36997 ft 471 kts 143°
2026-04-29 12:16 -7.00250 11.93492 36994 ft 471 kts 144°
2026-04-29 12:17 -7.05616 11.97287 36993 ft 471 kts 144°
2026-04-29 12:17 -7.10976 12.01085 36992 ft 471 kts 143°
2026-04-29 12:18 -7.16317 12.04903 36990 ft 471 kts 143°
2026-04-29 12:18 -7.21658 12.08729 36989 ft 470 kts 143°
2026-04-29 12:19 -7.26986 12.12512 36695 ft 472 kts 144°
2026-04-29 12:19 -7.29670 12.14408 36443 ft 471 kts 144°
2026-04-29 12:19 -7.32354 12.16303 36195 ft 471 kts 144°
2026-04-29 12:20 -7.35035 12.18197 35948 ft 471 kts 144°
2026-04-29 12:20 -7.37727 12.20099 35699 ft 471 kts 144°
2026-04-29 12:20 -7.40419 12.22001 35451 ft 472 kts 144°
2026-04-29 12:20 -7.43109 12.23903 35198 ft 473 kts 144°
2026-04-29 12:21 -7.45802 12.25808 34955 ft 473 kts 144°
2026-04-29 12:21 -7.48496 12.27715 34700 ft 474 kts 144°
2026-04-29 12:21 -7.51157 12.29599 34447 ft 474 kts 144°
2026-04-29 12:21 -7.53856 12.31513 34207 ft 475 kts 144°
2026-04-29 12:22 -7.56560 12.33430 33967 ft 475 kts 144°
2026-04-29 12:22 -7.59266 12.35350 33705 ft 475 kts 144°
2026-04-29 12:22 -7.61972 12.37270 33130 ft 476 kts 144°
2026-04-29 12:22 -7.64691 12.39201 32145 ft 479 kts 144°
2026-04-29 12:23 -7.67427 12.41144 30923 ft 483 kts 144°
2026-04-29 12:23 -7.70156 12.43097 30066 ft 478 kts 144°
2026-04-29 12:23 -7.72846 12.45037 29487 ft 469 kts 144°
2026-04-29 12:23 -7.75467 12.46917 29163 ft 457 kts 144°
2026-04-29 12:24 -7.78008 12.48729 28726 ft 450 kts 144°
2026-04-29 12:24 -7.80560 12.50541 28155 ft 446 kts 144°
2026-04-29 12:24 -7.83093 12.52338 27720 ft 444 kts 144°
2026-04-29 12:24 -7.85640 12.54145 27457 ft 450 kts 144°
2026-04-29 12:25 -7.88193 12.55957 27235 ft 449 kts 144°
2026-04-29 12:25 -7.90737 12.57764 26981 ft 446 kts 144°
2026-04-29 12:25 -7.95794 12.61357 26475 ft 443 kts 144°
2026-04-29 12:26 -7.98313 12.63148 26223 ft 441 kts 144°
2026-04-29 12:26 -8.00813 12.64942 25972 ft 439 kts 143°
2026-04-29 12:26 -8.03244 12.66724 25654 ft 437 kts 143°
2026-04-29 12:26 -8.05661 12.68569 25463 ft 434 kts 140°
2026-04-29 12:27 -8.07992 12.70508 25250 ft 433 kts 138°
2026-04-29 12:27 -8.10225 12.72514 25053 ft 425 kts 136°
2026-04-29 12:27 -8.12420 12.74469 24577 ft 419 kts 139°
2026-04-29 12:27 -8.14732 12.76225 24091 ft 412 kts 144°
2026-04-29 12:28 -8.17113 12.77783 23576 ft 403 kts 147°
2026-04-29 12:28 -8.19453 12.79278 23213 ft 392 kts 146°
2026-04-29 12:28 -8.21714 12.80738 22928 ft 379 kts 146°
2026-04-29 12:28 -8.23883 12.82179 22676 ft 366 kts 144°
2026-04-29 12:29 -8.25914 12.83586 22444 ft 352 kts 145°
2026-04-29 12:29 -8.27962 12.84923 22362 ft 356 kts 146°
2026-04-29 12:29 -8.30141 12.86256 22264 ft 376 kts 147°
2026-04-29 12:29 -8.32415 12.87665 22354 ft 390 kts 145°
2026-04-29 12:30 -8.34605 12.89323 22639 ft 397 kts 137°
2026-04-29 12:30 -8.36750 12.91172 22505 ft 415 kts 139°
2026-04-29 12:30 -8.39012 12.93011 22410 ft 417 kts 140°
2026-04-29 12:30 -8.41302 12.94795 22357 ft 416 kts 140°
2026-04-29 12:31 -8.43601 12.96566 22200 ft 416 kts 142°
2026-04-29 12:31 -8.45968 12.98235 22052 ft 414 kts 144°
2026-04-29 12:31 -8.48414 12.99762 21734 ft 412 kts 147°
2026-04-29 12:31 -8.50821 13.01321 21454 ft 410 kts 144°
2026-04-29 12:32 -8.53207 13.02894 20970 ft 409 kts 145°
2026-04-29 12:32 -8.55540 13.04506 20607 ft 404 kts 142°
2026-04-29 12:32 -8.57736 13.06269 19999 ft 403 kts 137°
2026-04-29 12:32 -8.59825 13.08160 19207 ft 402 kts 135°
2026-04-29 12:33 -8.61730 13.10189 18603 ft 393 kts 128°
2026-04-29 12:33 -8.63453 13.12304 17947 ft 388 kts 126°
2026-04-29 12:33 -8.65121 13.14438 17334 ft 386 kts 124°
2026-04-29 12:33 -8.66661 13.16660 16492 ft 385 kts 120°
2026-04-29 12:34 -8.68018 13.18986 15540 ft 384 kts 115°
2026-04-29 12:34 -8.69115 13.21434 14571 ft 382 kts 108°
2026-04-29 12:34 -8.69880 13.24001 13494 ft 382 kts 100°
2026-04-29 12:34 -8.70221 13.26654 12562 ft 380 kts 88°
2026-04-29 12:35 -8.69975 13.29260 11956 ft 366 kts 76°
2026-04-29 12:35 -8.69554 13.31764 11280 ft 356 kts 79°
2026-04-29 12:35 -8.69298 13.34208 10868 ft 348 kts 83°
2026-04-29 12:35 -8.69160 13.36672 10605 ft 351 kts 84°
2026-04-29 12:36 -8.69144 13.39132 10212 ft 349 kts 89°
2026-04-29 12:36 -8.69366 13.41561 9737 ft 343 kts 95°
2026-04-29 12:36 -8.69784 13.43844 9334 ft 327 kts 99°
2026-04-29 12:36 -8.70254 13.46029 9069 ft 308 kts 97°
2026-04-29 12:37 -8.70580 13.48094 8880 ft 288 kts 95°
2026-04-29 12:37 -8.70872 13.50075 8750 ft 287 kts 94°
2026-04-29 12:37 -8.71039 13.52082 8687 ft 286 kts 91°
2026-04-29 12:37 -8.71189 13.54091 8284 ft 287 kts 92°
2026-04-29 12:38 -8.71358 13.56079 7745 ft 281 kts 92°
2026-04-29 12:38 -8.71560 13.58034 7025 ft 281 kts 96°
2026-04-29 12:38 -8.72033 13.59983 6082 ft 289 kts 107°
2026-04-29 12:38 -8.72934 13.61781 5405 ft 284 kts 122°
2026-04-29 12:39 -8.74184 13.63307 4762 ft 280 kts 131°
2026-04-29 12:39 -8.75522 13.64682 4316 ft 268 kts 133°
2026-04-29 12:39 -8.76879 13.65947 4034 ft 268 kts 135°
2026-04-29 12:39 -8.78261 13.67203 3815 ft 266 kts 135°
2026-04-29 12:40 -8.79642 13.68441 3666 ft 265 kts 136°
2026-04-29 12:40 -8.81037 13.69633 3474 ft 257 kts 137°
2026-04-29 12:40 -8.82363 13.70742 3305 ft 238 kts 138°
2026-04-29 12:40 -8.83638 13.71718 3148 ft 222 kts 143°
2026-04-29 12:41 -8.84891 13.72553 3001 ft 213 kts 149°
2026-04-29 12:41 -8.86302 13.72965 2791 ft 209 kts 176°
2026-04-29 12:41 -8.87718 13.72737 2772 ft 210 kts 194°
2026-04-29 12:41 -8.89054 13.72169 2761 ft 207 kts 206°
2026-04-29 12:42 -8.90315 13.71456 2791 ft 208 kts 208°
2026-04-29 12:42 -8.91456 13.70566 2839 ft 208 kts 223°
2026-04-29 12:42 -8.92391 13.69451 2933 ft 208 kts 232°
2026-04-29 12:42 -8.93166 13.68216 2974 ft 209 kts 236°
2026-04-29 12:43 -8.93933 13.66969 2875 ft 207 kts 235°
2026-04-29 12:43 -8.94699 13.65761 2830 ft 196 kts 235°
2026-04-29 12:43 -8.95418 13.64630 2820 ft 199 kts 234°
2026-04-29 12:43 -8.96202 13.63478 2608 ft 193 kts 232°
2026-04-29 12:44 -8.97009 13.62463 2344 ft 179 kts 226°
2026-04-29 12:44 -8.97789 13.61516 1990 ft 171 kts 230°
2026-04-29 12:44 -8.98433 13.60584 1847 ft 152 kts 233°
2026-04-29 12:44 -8.99024 13.59693 1773 ft 153 kts 232°
2026-04-29 12:45 -8.99643 13.58824 1813 ft 154 kts 244°
2026-04-29 12:45 -9.00296 13.57949 1714 ft 155 kts 241°
2026-04-29 12:45 -9.00917 13.57081 1732 ft 154 kts 244°
2026-04-29 12:45 -9.01521 13.56176 1623 ft 152 kts 237°
2026-04-29 12:46 -9.02113 13.55295 1516 ft 156 kts 231°
2026-04-29 12:46 -9.02778 13.54430 1231 ft 150 kts 232°
2026-04-29 12:46 -9.03494 13.53644 1056 ft 152 kts 224°
2026-04-29 12:46 -9.04247 13.52899 870 ft 150 kts 231°
2026-04-29 12:47 -9.04888 13.52062 661 ft 151 kts 241°
2026-04-29 12:47 -9.05459 13.51190 577 ft 150 kts 229°
2026-04-29 12:47 -9.06058 13.50354 548 ft 131 kts 235°
2026-04-29 12:47 -9.06448 13.49768 548 ft 56 kts 232°
2026-04-29 12:48 -9.06623 13.49538 544 ft 40 kts 235°
2026-04-29 12:48 -9.06775 13.49314 542 ft 37 kts 236°
2026-04-29 12:48 -9.06863 13.49189 542 ft 21 kts 235°
2026-04-29 12:48 -9.06908 13.49099 542 ft 8 kts 264°
2026-04-29 12:49 -9.06875 13.49059 543 ft 7 kts 325°
2026-04-29 12:49 -9.06822 13.49050 544 ft 8 kts
2026-04-29 12:49 -9.06772 13.49077 544 ft 9 kts 36°
2026-04-29 12:49 -9.06725 13.49127 544 ft 11 kts 54°
2026-04-29 12:50 -9.06679 13.49197 544 ft 13 kts 54°
2026-04-29 12:50 -9.06623 13.49274 544 ft 14 kts 53°
2026-04-29 12:50 -9.06562 13.49358 545 ft 15 kts 53°
2026-04-29 12:50 -9.06496 13.49448 545 ft 17 kts 53°
2026-04-29 12:51 -9.06432 13.49535 545 ft 13 kts 53°
2026-04-29 12:51 -9.06389 13.49594 546 ft 7 kts 53°
2026-04-29 12:51 -9.06370 13.49619 547 ft 3 kts 53°
2026-04-29 12:51 -9.06352 13.49644 547 ft 6 kts 53°
2026-04-29 12:52 -9.06324 13.49682 547 ft 8 kts 53°
2026-04-29 12:52 -9.06285 13.49732 547 ft 10 kts 52°
2026-04-29 12:52 -9.06234 13.49789 547 ft 11 kts 31°
2026-04-29 12:52 -9.06180 13.49771 546 ft 9 kts 333°
2026-04-29 12:53 -9.06123 13.49731 546 ft 11 kts 323°
2026-04-29 12:53 -9.06058 13.49682 547 ft 13 kts 323°
2026-04-29 12:53 -9.05994 13.49633 551 ft 11 kts 323°
2026-04-29 12:53 -9.05927 13.49582 547 ft 12 kts 323°
2026-04-29 12:54 -9.05860 13.49546 547 ft 10 kts 358°
2026-04-29 12:54 -9.05807 13.49587 547 ft 10 kts 49°
2026-04-29 12:54 -9.05757 13.49647 547 ft 12 kts 52°
2026-04-29 12:54 -9.05707 13.49722 547 ft 14 kts 57°
2026-04-29 12:55 -9.05655 13.49801 547 ft 13 kts 54°
2026-04-29 12:55 -9.05604 13.49863 547 ft 11 kts 49°
2026-04-29 12:55 -9.05574 13.49880 547 ft 3 kts
2026-04-29 12:55 -9.05547 13.49868 547 ft 5 kts 334°
2026-04-29 12:56 -9.05529 13.49857 547 ft 2 kts 327°
2026-04-29 12:56 -9.05517 13.49849 547 ft 1 kts 327°
2026-04-29 12:56 -9.05516 13.49847 547 ft 0 kts 324°